EW6790 Weather Reports


time (UTC)temp
F
wind
direction
speed
knots
gust
knots
rain 1hr
in
rain 24hr
in
rain mn
in
humidity
%
barometer
mb
20260831131546 73 260 3.5 6.1 0.00 0.00 0.00 70 1007.8
20260831130045 72 233 2.6 5.2 0.00 0.00 0.00 71 1007.8
20260831124524 72 217 4.3 7.0 0.00 0.00 0.00 71 1007.4
20260831123022 72 250 2.6 10.4 0.00 0.00 0.00 68 1007.3
20260831121507 71 224 4.3 7.0 0.00 0.00 0.00 59 1006.8
20260831120100 0 0.0 0.0 0.00 0.00 0.00 1006.9
20260831114556 0 0.0 0.0 0.00 0.00 0.00 1006.5
20260831113033 0 0.0 0.0 0.00 0.00 0.00 1006.5
20260831111532 0 0.0 0.0 0.00 0.00 0.00 1006.2
20260831110013 0 0.0 0.0 0.00 0.00 0.00 1006.2
20260831104509 0 0.0 0.0 0.00 0.00 0.00 1006.3
20260831103004 0 0.0 0.0 0.00 0.00 0.00 1006.2
20260831101603 0 0.0 0.0 0.00 0.00 0.00 1006.2
20260831100058 71 165 4.3 7.0 0.00 0.00 0.00 52 1006.1
20260831094557 71 181 4.3 6.1 0.00 0.00 0.00 53 1006.2
20260831093056 70 186 4.3 6.1 0.00 0.00 0.00 56 1006.2
20260831091607 71 198 3.5 6.1 0.00 0.00 0.00 55 1006.1
20260831090038 71 180 5.2 7.0 0.00 0.00 0.00 57 1006.2
20260831084536 71 187 4.3 7.0 0.00 0.00 0.00 57 1006.2
20260831083023 71 195 6.1 7.8 0.00 0.00 0.00 60 1005.9
20260831081516 71 189 4.3 7.0 0.00 0.00 0.00 63 1005.8
20260831080106 72 186 6.1 10.4 0.00 0.00 0.00 64 1005.8
20260831074557 72 174 6.1 10.4 0.00 0.00 0.00 62 1005.7
20260831073039 72 185 5.2 8.7 0.00 0.00 0.00 62 1005.9
20260831071537 72 181 5.2 10.4 0.00 0.00 0.00 60 1005.9
20260831070020 72 169 5.2 8.7 0.00 0.00 0.00 58 1006.1
20260831064518 71 183 5.2 7.8 0.00 0.00 0.00 58 1006.2
20260831063100 71 169 3.5 7.8 0.00 0.00 0.00 58 1006.2
20260831061559 71 132 4.3 7.0 0.00 0.00 0.00 54 1006.5
20260831060042 71 172 5.2 7.0 0.00 0.00 0.00 57 1006.5
20260831054539 71 140 3.5 6.1 0.00 0.00 0.00 57 1006.5
20260831053025 71 162 2.6 5.2 0.00 0.00 0.00 60 1006.6
20260831051520 71 125 1.7 5.2 0.00 0.00 0.00 62 1006.8
20260831050100 71 140 1.7 5.2 0.00 0.00 0.00 65 1006.8
20260831044558 71 150 1.7 4.3 0.00 0.00 0.00 69 1006.7
20260831043037 72 160 1.7 4.3 0.00 0.00 0.00 72 1006.7
20260831041548 72 197 2.6 6.1 0.00 0.00 0.00 76 1006.5
20260831040020 73 185 5.2 9.6 0.00 0.00 0.00 78 1006.4
20260831034516 73 174 5.2 10.4 0.00 0.00 0.00 79 1006.2
20260831033059 73 147 5.2 12.2 0.00 0.00 0.00 81 1006.4
20260831031609 73 166 6.1 12.2 0.00 0.00 0.00 78 1006.5
20260831030043 73 162 7.8 12.2 0.00 0.00 0.00 75 1006.4
20260831024550 73 150 6.1 10.4 0.00 0.00 0.00 77 1006.4
20260831023019 73 148 4.3 8.7 0.00 0.00 0.00 84 1006.6
20260831021515 74 160 3.5 8.7 0.00 0.00 0.00 87 1006.7
20260831020056 75 141 7.0 13.0 0.00 0.00 0.00 87 1006.6
20260831014554 75 125 6.1 12.2 0.00 0.00 0.00 87 1006.5
20260831013035 75 156 6.1 11.3 0.00 0.00 0.00 86 1006.4
20260831011531 76 163 7.0 13.9 0.00 0.00 0.00 85 1006.3
20260831010011 76 184 7.0 13.9 0.00 0.00 0.00 85 1006.1
20260831004508 77 168 6.1 13.0 0.00 0.00 0.00 83 1006.1
20260831003050 78 142 7.8 13.9 0.00 0.00 0.00 81 1006.1
20260831001546 79 187 7.0 13.0 0.00 0.00 0.00 83 1006.1
20260831000027 79 184 6.1 13.9 0.00 0.00 0.00 83 1006.0
20260830234537 80 162 9.6 15.6 0.00 0.00 0.00 81 1005.9
20260830233003 81 153 7.0 13.0 0.00 0.00 0.00 80 1005.7
20260830231601 81 161 7.8 13.9 0.00 0.00 0.00 78 1005.7
20260830230042 82 182 8.7 13.0 0.00 0.00 0.00 78 1005.7
20260830224548 83 164 7.8 12.2 0.00 0.00 0.00 77 1005.5
20260830223024 83 150 7.0 12.2 0.00 0.00 0.00 78 1005.5
20260830221529 83 176 7.0 12.2 0.00 0.00 0.00 77 1005.5
20260830220005 84 185 8.7 13.0 0.00 0.00 0.00 74 1005.2
20260830214505 84 187 9.6 13.9 0.00 0.00 0.00 74 1005.2
20260830213045 83 190 7.8 14.8 0.00 0.00 0.00 77 1005.4
20260830211543 83 131 7.8 14.8 0.00 0.00 0.00 76 1005.6
20260830210027 83 175 7.8 12.2 0.00 0.00 0.00 76 1005.7
20260830204536 82 176 8.7 14.8 0.00 0.00 0.00 75 1005.8
20260830203009 83 229 8.7 14.8 0.00 0.00 0.00 71 1005.8
20260830201508 84 233 11.3 17.4 0.00 0.00 0.00 70 1005.8
20260830200010 83 146 6.1 15.6 0.00 0.00 0.00 74 1005.8
20260830194505 84 170 7.8 14.8 0.00 0.00 0.00 75 1005.7
20260830193002 85 192 7.0 14.8 0.00 0.00 0.00 73 1005.8
20260830191502 85 169 7.0 13.0 0.00 0.00 0.00 71 1005.8
20260830190100 85 184 7.0 12.2 0.00 0.00 0.00 71 1005.9
20260830184559 84 191 9.6 13.9 0.00 0.00 0.00 71 1005.7
20260830183040 84 179 9.6 13.9 0.00 0.00 0.00 72 1005.9
20260830181538 84 219 7.8 14.8 0.00 0.00 0.00 71 1006.0
20260830180023 85 144 7.8 13.9 0.00 0.00 0.00 74 1005.9
20260830174521 84 188 4.3 9.6 0.00 0.00 0.00 76 1006.0
20260830173017 84 169 5.2 9.6 0.00 0.00 0.00 70 1005.9
20260830171516 85 169 5.2 13.0 0.00 0.00 0.00 73 1006.0
20260830170014 84 207 3.5 5.2 0.00 0.00 0.00 72 1006.2
20260830164533 82 219 0.9 7.8 0.00 0.00 0.00 75 1006.4
20260830163011 82 221 6.1 11.3 0.00 0.00 0.00 76 1006.9
20260830161511 81 185 3.5 14.8 0.00 0.00 0.00 79 1007.0
20260830160051 80 205 8.7 13.9 0.00 0.00 0.00 78 1007.1
20260830154554 79 203 8.7 13.0 0.00 0.00 0.00 79 1007.1
20260830153032 79 195 6.1 14.8 0.00 0.00 0.00 80 1006.5
20260830151534 78 198 7.8 13.0 0.00 0.00 0.00 81 1006.3
20260830150021 78 207 7.8 12.2 0.00 0.00 0.00 81 1006.1
20260830144514 77 201 6.1 9.6 0.00 0.00 0.00 83 1006.1
20260830143117 76 205 4.3 9.6 0.00 0.00 0.00 84 1006.0
20260830141555 76 212 6.1 9.6 0.00 0.01 0.00 83 1006.0
20260830140101 76 199 7.0 11.3 0.00 0.01 0.00 84 1005.9
20260830134541 74 174 4.3 8.7 0.00 0.01 0.00 87 1006.1
20260830133040 74 165 3.5 7.8 0.00 0.01 0.00 87 1006.3